GFSFLT2_925_spd_063.txt.gz
Wind_Speed
10 14 22 20 18 28 27 38 42 42 41 38 37 34 33 34 30 31 30 30 29 28 27 26 26 28 25 25 20 19 19 19
9 12 20 28 28 28 17 22 43 43 39 39 38 38 36 32 30 29 29 30 30 29 27 25 26 25 26 22 22 20 18 19
12 15 17 19 21 20 15 29 40 41 41 39 38 32 33 32 26 29 31 31 30 28 27 27 26 25 25 26 17 16 16 16
12 16 16 16 21 26 29 30 36 40 37 36 33 30 30 27 26 31 32 31 29 28 27 27 22 19 17 13 9 14 15 15
9 12 11 12 18 22 25 14 29 33 33 35 31 31 28 28 29 31 29 29 24 24 27 21 18 18 13 10 15 13 15 16
11 10 9 10 14 17 24 24 31 31 34 33 30 29 26 26 28 28 27 25 24 23 20 19 17 16 11 15 13 14 16 16
14 11 9 10 13 17 17 23 18 37 33 29 25 25 25 27 29 29 27 24 24 22 17 18 17 15 14 14 14 13 16 16
12 12 10 10 14 17 21 24 31 35 36 33 27 26 22 25 30 29 28 27 24 21 18 18 17 17 15 14 14 14 14 15
12 11 10 14 14 21 25 32 33 37 38 37 32 25 22 23 26 29 27 27 25 20 18 19 18 17 16 14 14 13 13 14
15 12 14 15 13 15 20 18 35 36 37 32 33 29 23 22 22 21 22 20 20 19 21 20 19 18 17 15 14 13 13 12
16 15 17 17 14 16 17 17 32 39 37 31 32 26 26 20 21 19 21 21 20 19 19 18 17 18 17 16 14 13 13 13
17 17 17 20 17 21 20 25 31 37 35 26 27 26 24 20 19 18 17 19 18 18 17 17 17 16 16 14 13 13 13 12
17 19 22 25 23 24 24 24 31 31 32 26 28 27 24 19 16 20 19 19 19 17 16 16 15 14 14 13 11 11 12 14
17 23 27 28 28 23 22 25 30 33 30 25 24 27 28 30 22 19 21 16 19 20 19 16 15 15 14 14 7 11 16 18
19 21 27 29 28 25 20 24 24 28 29 28 27 26 25 25 23 20 23 20 21 21 20 18 16 16 16 11 5 7 16 20
20 21 25 30 29 31 30 30 30 36 34 29 35 33 23 23 25 24 23 23 23 23 20 18 17 16 12 16 15 11 2 5
20 22 23 25 29 28 33 30 28 29 35 30 29 37 33 30 30 37 27 24 23 21 20 19 18 19 16 13 16 16 15 9
19 22 22 25 29 31 33 34 30 28 30 34 34 32 31 34 34 35 38 27 27 25 22 21 20 16 19 18 18 15 16 14
21 23 25 25 29 31 33 33 33 33 34 35 35 35 30 33 32 30 37 41 32 28 28 23 19 18 18 19 22 23 20 17
24 24 26 25 29 31 31 33 30 33 34 35 35 37 37 31 32 33 34 37 35 32 30 30 26 24 20 20 23 25 22 20

GFSFLT2_925_spd_066.txt.gz
Wind_Speed
9 12 18 19 21 21 11 6 15 36 41 39 37 35 34 33 32 30 28 26 26 28 30 29 31 29 24 19 15 27 26 24
10 11 19 17 22 19 16 17 17 25 43 41 38 36 34 33 33 30 28 26 27 29 31 29 29 25 22 17 26 23 23 24
6 10 14 14 17 14 12 23 35 27 42 42 38 37 36 32 31 31 28 29 29 28 28 31 26 25 24 25 22 21 25 23
10 9 11 12 14 10 11 14 22 35 38 41 37 36 34 33 30 31 30 29 27 26 26 28 26 27 24 17 12 23 23 21
9 10 11 7 6 7 12 14 17 27 35 42 34 34 33 32 34 32 31 28 27 25 28 26 25 22 17 8 11 23 23 22
7 9 11 9 7 7 13 16 22 33 35 38 37 34 32 32 30 32 32 28 28 29 29 21 20 17 9 14 17 25 24 23
9 10 9 9 9 9 15 18 14 34 34 26 36 30 31 31 29 31 28 25 24 31 26 22 20 16 16 18 9 25 21 21
11 9 8 9 8 11 17 19 22 29 32 26 30 30 30 31 29 30 28 27 24 25 19 23 21 15 17 14 13 23 21 19
13 12 9 9 13 14 16 20 19 31 34 28 30 29 27 31 30 28 26 27 23 23 22 22 18 18 16 14 13 16 21 24
13 12 10 10 11 15 16 19 27 36 37 32 32 27 26 27 33 30 27 28 26 22 24 21 19 20 18 15 15 13 20 22
17 13 11 11 9 10 14 23 33 38 40 40 34 28 26 24 27 28 31 30 30 24 23 22 21 21 21 17 17 16 17 17
18 16 15 17 16 14 14 16 27 36 38 39 35 31 29 24 17 27 23 24 19 22 23 21 20 18 20 20 18 18 18 17
20 19 19 22 20 21 21 20 26 32 33 42 33 23 30 20 18 21 20 20 15 20 17 18 17 19 16 21 15 15 18 18
20 22 23 24 21 18 19 25 25 35 30 35 28 28 28 23 20 21 18 18 18 20 17 16 10 14 8 15 3 7 15 18
21 22 25 26 23 23 23 21 24 25 31 31 30 31 32 30 19 25 25 21 23 23 20 18 17 19 21 9 3 4 12 21
24 25 29 28 30 25 30 24 26 30 29 28 31 32 35 35 31 29 32 26 23 24 26 25 23 22 27 23 15 4 2 1
27 28 29 28 30 25 28 27 26 27 27 25 31 33 36 37 36 31 30 32 24 28 26 28 25 23 25 19 19 15 14 7
23 30 30 28 32 30 30 29 31 30 29 25 26 31 37 31 32 33 31 31 29 25 28 28 28 28 24 23 18 10 14 10
26 28 28 31 31 33 33 31 30 30 36 30 29 28 31 34 30 28 33 34 28 26 30 27 35 30 26 21 27 22 22 19
26 27 25 30 33 31 34 32 30 30 33 35 32 33 33 36 34 35 36 31 36 36 33 32 30 28 31 33 29 27 26 26

GFSFLT2_925_spd_072.txt.gz
Wind_Speed
14 17 20 22 23 23 26 29 29 22 17 19 21 24 24 31 32 31 32 30 34 35 35 34 29 23 31 31 28 29 30 27
12 15 19 20 18 23 26 25 27 18 15 24 20 24 26 30 31 32 31 29 39 35 33 30 25 29 32 30 27 26 29 29
13 14 16 17 16 16 18 19 30 33 35 25 35 23 31 32 34 33 31 32 38 35 33 29 22 28 32 29 26 28 30 28
12 13 15 17 19 19 19 18 31 37 30 31 29 22 34 35 34 33 30 35 37 34 32 28 30 37 34 28 24 28 29 28
13 13 13 18 18 20 21 23 27 32 32 31 22 32 34 37 36 32 32 37 36 33 31 28 37 31 27 28 29 28 29 28
15 14 13 14 16 19 19 21 24 29 31 37 32 29 35 38 36 35 34 39 36 35 33 30 32 23 26 30 29 28 30 29
15 16 16 15 14 14 15 18 21 29 32 38 35 42 42 38 36 36 38 39 38 39 35 32 28 23 21 31 28 28 29 30
17 17 17 16 12 13 14 16 22 23 33 42 29 42 42 36 36 39 41 41 40 40 36 33 26 17 19 30 26 26 30 29
21 20 17 13 11 10 11 17 15 20 30 33 26 41 44 43 42 40 41 40 40 37 33 29 23 16 24 28 26 27 28 28
22 21 18 16 13 12 12 13 17 17 26 38 36 42 45 42 43 40 40 39 40 38 35 31 23 19 25 27 28 28 27 27
25 24 21 18 16 13 15 12 17 20 30 35 35 38 42 42 43 41 39 39 40 36 33 29 24 22 22 25 29 27 27 27
28 22 19 18 19 18 16 16 20 26 33 35 38 37 38 40 40 41 40 41 39 34 31 28 27 25 22 25 25 26 26 26
30 25 23 21 20 21 18 17 21 27 29 33 37 37 35 39 37 40 42 42 42 37 28 32 32 28 24 23 23 25 26 24
32 29 26 23 20 20 18 21 21 28 29 35 34 37 34 34 37 38 39 39 41 37 29 28 26 34 18 18 4 7 22 27
32 33 31 27 23 20 19 18 18 22 25 27 30 34 34 34 34 36 38 39 39 34 31 32 24 34 29 16 3 4 7 15
34 33 31 28 27 24 23 18 15 18 20 27 28 30 28 28 34 37 32 33 31 34 33 32 31 27 23 27 17 12 3 1
35 32 30 29 28 27 23 19 18 19 24 25 30 35 30 26 31 36 36 33 33 29 22 22 31 34 26 25 19 14 12 4
33 33 33 32 30 28 27 24 22 21 24 26 26 33 33 25 25 32 28 27 29 32 24 24 27 34 29 29 28 15 12 6
26 31 26 32 32 30 28 26 26 25 25 27 27 28 34 34 33 31 39 32 28 37 38 36 33 29 30 30 27 23 15 19
28 28 25 28 30 29 29 28 26 29 32 27 30 31 35 35 38 36 36 35 35 36 39 40 32 30 31 31 32 28 20 15

GFSFLT2_925_spd_075.txt.gz
Wind_Speed
20 21 21 22 24 25 24 24 24 20 23 23 18 21 20 28 30 29 31 32 33 32 35 34 33 31 29 27 27 26 26 23
17 20 22 22 24 23 23 23 22 26 18 17 21 15 19 18 24 28 30 33 36 35 36 34 30 29 29 28 27 27 27 25
16 18 19 20 19 21 22 25 31 30 29 25 26 25 27 23 26 28 30 32 36 37 34 28 27 30 30 29 27 27 27 27
16 16 17 17 17 17 18 21 31 29 31 35 34 32 28 26 24 29 28 34 36 36 31 27 31 34 30 28 27 28 27 26
16 15 15 17 17 19 20 20 27 31 33 38 39 38 36 32 26 28 30 37 37 35 29 33 34 33 31 28 28 28 27 25
16 15 15 16 17 20 23 25 31 32 34 37 40 34 35 32 31 35 35 41 37 36 32 33 37 34 31 27 28 29 27 26
19 16 15 16 18 20 23 24 27 32 33 35 42 41 30 31 34 38 37 42 39 36 31 35 36 33 28 27 29 28 27 27
20 18 16 17 19 18 20 22 26 30 36 37 41 32 36 37 36 39 37 43 41 38 36 35 32 30 29 28 27 27 28 28
21 22 19 19 18 18 19 20 21 24 30 35 37 42 35 37 35 37 40 45 42 41 36 34 28 26 31 29 28 29 28 27
23 23 24 20 17 16 15 18 19 21 26 29 38 35 36 39 37 41 41 43 40 42 37 33 26 27 32 31 29 27 27 27
26 25 24 19 14 11 10 9 16 18 24 26 35 28 45 40 38 41 41 43 41 42 36 34 28 29 31 30 27 27 27 26
27 26 23 20 15 11 9 9 12 14 20 33 25 36 41 37 36 40 42 41 39 40 36 29 27 28 25 24 25 26 26 26
30 29 25 21 19 16 11 10 10 14 21 27 32 38 33 33 34 37 40 41 40 39 35 29 25 27 24 16 17 21 24 25
33 30 26 23 20 18 12 14 11 14 19 27 27 31 29 29 31 36 35 35 40 37 36 26 23 28 14 15 3 4 19 24
34 31 27 24 20 20 15 15 9 13 16 22 28 33 38 36 31 35 34 34 39 40 34 30 20 29 22 10 3 3 6 15
31 30 29 26 24 22 22 15 11 13 21 23 26 32 32 37 33 34 36 33 37 40 35 31 30 24 22 22 16 9 3 2
26 24 24 26 27 23 25 19 15 14 17 21 23 25 36 36 37 32 30 34 34 39 35 29 34 28 31 26 18 13 13 4
25 25 24 28 29 26 25 23 20 17 20 20 24 22 26 32 28 31 34 29 29 34 34 32 28 27 37 30 28 14 9 6
26 26 23 26 30 28 27 25 22 21 19 19 21 22 22 26 29 30 34 40 34 34 26 25 23 19 20 29 36 34 24 22
27 27 24 24 26 25 26 25 23 23 22 20 22 22 23 32 31 31 32 39 41 33 33 34 31 25 27 27 27 39 35 27